Location: �perlecques
(50.8057°N, 2.1521°E)
Time: 03:20:33
(UTC+00:00)

CARTOSAT-1 - Pass Details

Date: 09 April 2020
Orbit: 616 x 619 km, 97.8° (Epoch: 04 June)

Event Time Altitude Azimuth Distance (km) Brightness Sun altitude
Exits shadow 20:39:28 32° 95° (E) 1,069 4.3 -18.0°
Maximum altitude 20:40:25 36° 67° (ENE) 988 4.3 -18.1°
Drops below altitude 10° 20:44:23 10° 1° (N) 1,999 6.7 -18.6°
Sets 20:46:42 0° 353° (N) 2,910 7.8 -18.8°
